GFSCGP_sfc_dewp_276.txt.gz
Dewpoint
18 16 15 14 15 16 22 22 23 22 21 18 26 31 37 49 54 53 53 54 54 55 56 58 61 61 56 58 57 58 57 59 60 60 60 58 58 58 53 53 54 54 54 53
16 16 20 19 22 22 22 21 19 21 24 25 32 32 39 47 52 54 53 53 53 54 54 55 58 59 56 56 57 57 58 60 60 59 59 56 54 53 53 53 52 54 53 53
15 17 25 23 23 22 23 22 23 22 24 23 29 31 30 41 51 54 54 54 53 53 53 54 56 58 57 57 58 59 60 59 59 58 56 54 52 51 51 51 52 53 53 53
22 22 23 22 23 22 23 25 27 26 24 20 23 27 28 33 43 49 52 53 54 53 54 55 56 56 56 56 60 60 59 58 58 57 54 52 50 49 50 51 52 52 52 52
23 24 23 22 25 25 26 27 28 27 24 20 21 26 27 33 38 42 47 51 53 55 55 55 56 56 56 56 60 60 59 58 57 55 53 52 51 51 52 52 51 51 51 51
25 26 24 24 28 28 30 24 25 27 22 18 21 26 27 29 32 35 36 38 50 54 55 55 56 57 56 58 60 59 58 57 54 54 54 53 52 51 50 49 48 48 49 49
25 25 27 28 24 26 25 23 20 16 22 19 23 25 26 29 32 34 36 40 44 52 54 55 55 54 56 56 57 57 54 53 52 52 51 50 50 50 49 48 48 49 49 48
24 24 29 30 26 25 25 23 22 19 19 19 26 24 25 32 33 34 37 46 51 53 54 54 54 53 52 55 54 51 50 49 48 47 49 51 50 50 49 49 49 48 48 48
28 28 31 29 27 29 29 26 25 24 27 24 23 27 29 35 35 36 38 48 49 51 52 52 52 51 49 49 49 48 47 45 46 48 51 50 49 49 49 49 48 47 48 47
32 27 32 34 32 32 27 28 27 27 23 21 24 27 26 31 32 33 37 40 44 46 47 50 52 49 45 45 45 44 44 44 46 49 49 49 49 49 49 47 47 47 47 48
32 31 28 31 29 30 30 27 29 27 28 24 22 22 30 31 32 33 36 37 38 40 41 46 47 44 44 42 41 43 43 45 48 48 48 48 49 48 47 47 46 46 48 48
37 30 26 27 33 34 30 27 27 28 23 29 26 25 29 33 33 35 35 36 35 37 38 41 42 42 42 42 42 42 44 46 47 48 48 48 48 47 46 45 45 48 48 48
34 30 27 25 27 32 31 29 29 29 28 26 25 25 32 36 37 37 34 34 35 37 41 40 40 40 41 42 42 43 44 45 48 48 47 46 46 46 45 46 47 48 49 49
43 33 28 26 23 30 29 33 31 29 27 27 27 27 29 34 37 36 35 37 36 36 39 39 40 40 41 42 43 44 45 48 48 47 45 44 45 45 45 47 48 49 49 49
36 34 35 33 34 33 32 32 33 29 29 28 30 30 31 33 35 36 37 37 36 37 38 38 39 40 41 42 43 44 46 48 47 45 44 44 45 46 46 48 49 49 49 49
35 34 33 31 36 37 33 35 35 34 32 31 33 31 34 36 37 37 38 36 36 37 37 37 39 41 41 42 43 44 45 48 46 44 44 44 45 45 46 48 49 49 49 49
34 36 30 29 37 34 28 34 35 34 35 35 31 31 36 35 37 38 36 37 38 38 38 39 40 41 42 43 44 44 47 46 45 44 44 44 45 45 47 48 48 48 49 49
36 36 35 32 33 29 31 40 40 39 41 41 39 38 39 39 40 40 37 37 38 39 40 41 41 42 43 43 45 47 46 45 45 44 43 44 45 45 47 48 48 48 48 48
41 40 37 34 32 34 37 39 41 37 35 44 41 41 41 42 42 41 42 43 41 42 43 43 44 44 44 45 46 47 45 44 44 44 43 44 45 46 48 48 47 47 47 48
42 42 37 37 33 31 37 42 45 40 34 42 45 43 42 42 38 40 44 47 46 47 47 46 46 44 45 45 47 45 43 42 42 43 44 45 45 47 47 46 46 47 47 47
37 37 36 35 33 35 40 43 42 34 37 43 45 45 43 40 42 44 47 45 46 48 47 48 45 45 45 46 45 43 42 42 43 44 45 45 47 48 46 46 45 46 46 47
33 35 36 36 33 32 44 43 37 40 42 45 45 46 45 46 46 44 44 45 46 47 47 47 45 44 46 45 43 42 42 44 43 44 44 46 48 47 46 46 45 46 46 47
33 37 38 38 37 41 44 41 43 43 44 45 44 46 46 42 42 44 45 46 47 48 47 47 45 45 44 44 43 43 44 43 43 44 45 47 47 46 47 45 45 45 47 47
36 44 40 39 39 43 46 45 47 48 45 47 47 45 45 43 45 45 46 47 47 48 48 47 45 44 43 43 44 44 44 43 44 44 46 47 47 45 47 45 45 44 44 46
35 40 40 39 41 43 47 48 48 49 49 47 47 46 46 45 46 46 46 47 48 49 49 48 46 44 43 44 44 45 43 44 44 45 47 47 46 44 45 45 41 43 41 40
35 33 37 36 42 42 43 46 48 43 43 43 44 44 45 46 46 47 47 48 48 49 50 48 45 44 44 44 44 44 44 45 45 46 47 46 45 45 45 45 45 40 39 38

GFSCGP_sfc_dewp_279.txt.gz
Dewpoint
22 20 20 20 20 21 23 23 21 23 25 30 35 37 41 48 52 53 55 56 57 57 58 59 60 59 58 60 61 63 63 64 63 61 59 62 63 61 59 55 56 56 55 54
20 21 21 19 22 24 23 22 22 23 25 31 36 36 44 47 51 53 53 54 56 57 57 58 58 59 58 59 61 62 63 64 64 62 63 62 64 59 55 56 57 56 56 55
21 19 22 24 25 25 26 26 26 25 28 28 30 32 35 40 49 52 53 54 55 55 56 58 58 58 58 59 60 62 63 64 65 64 62 64 58 56 53 53 54 56 56 55
23 24 23 24 23 24 25 25 26 25 26 21 27 22 34 36 43 47 51 52 53 54 55 56 57 58 58 59 59 62 64 64 64 62 61 59 55 53 53 53 54 55 55 54
23 24 24 24 24 25 26 29 28 27 27 26 26 25 32 36 38 41 46 49 52 53 54 54 56 57 57 58 58 61 64 62 62 60 59 56 57 55 53 53 56 56 54 54
25 26 25 26 27 28 28 26 27 28 25 23 27 27 28 34 37 38 40 42 47 50 53 56 57 57 58 58 58 61 63 63 61 58 58 59 58 55 53 53 52 50 50 50
26 26 26 27 26 28 28 30 21 18 22 20 27 26 29 35 32 35 36 39 41 46 51 54 55 56 57 57 58 60 60 60 57 55 54 53 56 56 55 54 50 52 47 45
25 23 27 28 26 28 28 30 23 21 21 19 28 26 27 32 33 35 35 40 45 48 50 54 55 56 54 57 57 56 55 54 53 51 52 55 55 52 52 52 52 48 46 45
29 27 30 29 27 30 31 30 30 31 30 25 25 29 32 33 33 35 35 41 46 50 52 54 55 56 55 53 54 55 52 51 50 50 54 55 55 55 53 54 53 47 49 47
37 31 31 33 32 32 32 31 31 31 25 23 25 28 24 32 33 35 36 40 46 49 50 51 53 55 53 50 51 50 49 48 48 51 52 52 54 53 53 53 51 50 50 51
38 39 32 32 32 31 31 31 33 34 31 26 24 23 33 35 37 38 37 39 41 43 43 46 51 51 49 47 44 48 46 46 48 50 52 53 52 52 52 51 50 49 51 51
37 41 32 30 33 34 32 31 33 31 29 32 30 26 33 36 38 40 39 39 40 40 39 42 45 49 49 48 46 45 48 46 47 50 51 52 51 50 50 50 50 50 51 50
41 39 34 30 32 35 32 31 33 37 35 34 27 23 33 37 39 38 38 38 38 39 39 41 43 46 46 47 47 45 46 45 48 50 49 50 49 49 49 50 50 51 50 50
49 40 36 28 29 33 31 32 32 35 34 28 28 29 33 36 38 38 39 38 37 39 40 40 43 43 44 46 46 46 47 48 49 49 48 48 49 48 48 49 51 51 50 50
48 41 38 32 33 32 30 29 32 32 33 33 32 31 34 38 38 40 39 38 38 38 39 41 43 44 44 46 46 47 48 50 49 48 47 48 47 47 48 50 51 50 50 50
43 42 37 34 34 35 31 33 34 34 33 33 34 34 38 38 36 37 38 38 38 39 39 40 42 44 44 46 46 46 47 49 50 48 46 45 46 47 49 50 49 50 50 50
43 42 37 32 36 34 32 33 34 34 35 35 32 35 41 38 37 39 40 40 40 41 41 43 44 46 48 48 48 47 48 50 48 47 45 45 46 47 49 49 49 49 49 49
44 43 40 36 36 30 33 38 39 39 41 41 41 40 39 40 42 43 43 41 42 43 44 47 47 50 50 47 48 49 48 48 47 46 44 44 46 47 49 49 48 48 50 49
46 45 41 38 35 36 36 40 42 41 38 43 42 41 40 42 43 45 47 48 47 48 48 48 50 50 50 48 48 49 48 46 45 44 44 45 47 48 48 46 46 47 49 49
46 47 41 40 36 32 38 40 43 41 38 42 45 44 43 43 38 43 48 46 48 50 50 50 51 50 49 49 49 48 45 44 44 44 46 47 49 48 46 47 46 47 48 48
41 42 40 39 37 38 42 42 43 38 42 44 46 47 46 44 46 48 48 49 50 51 51 52 51 50 49 50 48 46 45 44 45 46 47 49 47 47 46 48 47 47 48 49
37 40 41 41 38 32 44 43 41 46 47 48 47 49 49 48 45 46 48 48 48 48 49 51 51 50 49 48 46 46 45 46 45 46 48 48 47 46 48 48 47 48 48 48
34 40 41 44 38 46 47 47 49 47 48 48 47 48 45 44 45 47 46 48 48 47 48 51 51 49 48 47 47 46 46 45 46 48 48 48 47 47 48 47 48 46 48 48
41 46 43 44 44 46 48 49 49 50 48 48 49 47 46 46 47 46 47 48 48 48 48 51 51 49 47 47 46 46 45 46 47 49 48 48 47 48 48 46 47 47 46 49
39 46 45 44 45 46 48 50 49 49 49 50 47 47 47 48 47 46 48 50 50 49 49 52 50 49 47 47 46 46 45 47 48 49 48 45 45 47 47 47 44 46 45 45
40 42 38 34 47 48 47 51 50 47 45 46 46 46 48 48 47 48 50 51 50 49 51 52 49 48 47 46 46 45 47 48 49 48 46 45 45 46 46 48 47 39 40 39

GFSCGP_sfc_dewp_285.txt.gz
Dewpoint
22 18 17 21 19 17 16 16 17 21 23 22 21 24 22 32 33 33 42 46 50 51 55 59 61 59 59 61 63 64 66 67 66 61 59 61 64 67 66 62 59 58 56 55
19 18 20 18 17 17 17 18 21 21 25 26 23 22 26 31 36 39 42 46 49 52 54 58 60 60 60 61 62 64 65 67 67 62 63 63 64 61 59 59 58 59 59 58
17 19 19 16 18 18 20 23 22 20 21 22 27 24 28 32 39 42 44 47 48 48 47 52 56 59 60 62 63 64 65 66 67 67 64 65 64 64 58 62 56 55 57 56
17 19 15 16 18 20 19 23 21 22 21 18 24 16 31 30 34 36 41 41 39 40 42 45 49 54 58 59 60 62 64 66 66 67 65 66 63 60 55 54 52 55 56 54
18 16 17 18 23 22 22 22 22 22 23 24 24 13 32 30 31 33 34 35 36 37 39 40 47 50 50 55 56 61 64 66 66 66 67 63 62 54 51 51 60 63 61 53
21 21 20 24 23 22 23 25 25 26 22 22 25 15 28 29 29 32 32 32 34 34 37 40 46 48 49 49 51 57 64 66 66 66 66 65 62 59 55 56 53 50 50 48
20 19 22 23 20 29 26 28 21 21 19 15 22 15 29 28 27 28 28 28 31 34 36 38 42 43 47 47 49 54 59 63 64 63 61 59 60 60 59 55 52 55 49 48
19 21 23 25 22 25 28 29 23 23 19 14 21 22 25 27 27 27 29 30 30 31 33 38 40 44 42 47 52 54 53 56 58 58 57 58 59 54 53 55 54 53 50 49
22 22 24 20 25 27 31 36 30 34 30 21 22 24 26 28 25 28 28 30 31 33 38 40 41 46 46 49 51 54 50 53 54 55 57 58 58 58 56 57 57 52 53 49
30 26 24 26 27 31 32 27 28 25 25 24 19 22 26 28 29 30 30 32 34 37 37 40 43 46 50 49 50 50 50 49 51 53 53 55 59 55 57 56 55 53 52 52
32 32 34 29 29 34 31 34 31 30 29 24 21 19 30 31 32 34 34 34 34 36 37 38 40 43 49 46 43 46 47 49 49 51 55 57 55 56 57 55 52 51 53 52
34 38 33 37 32 29 27 29 30 28 28 25 26 25 32 33 34 37 36 36 39 39 37 37 37 42 43 44 45 47 50 48 49 53 52 57 54 55 57 53 51 53 53 53
38 35 31 29 34 41 34 31 32 33 38 32 26 24 30 33 35 37 37 37 36 37 39 39 39 40 42 49 48 48 50 49 52 51 50 52 54 55 53 52 52 52 53 52
51 41 35 26 33 35 34 29 29 33 32 28 25 27 29 35 37 37 38 39 36 37 39 39 41 42 43 47 51 50 50 52 51 50 50 52 52 51 50 52 53 53 51 50
48 40 34 30 29 28 27 26 26 28 29 28 28 28 32 37 37 37 39 38 37 39 40 41 44 46 46 50 48 47 49 52 52 51 50 51 50 50 51 52 52 50 50 50
46 40 37 31 31 31 29 29 27 28 26 28 31 30 39 38 36 39 40 37 38 39 40 43 45 47 48 49 48 48 51 53 53 51 49 47 48 50 51 50 50 50 51 51
42 37 37 32 32 33 31 28 29 28 29 33 30 33 36 39 40 41 40 41 43 45 46 46 46 46 48 51 49 50 52 52 52 50 46 47 49 48 47 48 48 48 50 51
41 42 36 31 32 28 32 34 32 32 34 34 34 34 38 39 41 43 44 46 46 46 46 45 44 46 49 49 50 52 51 51 50 48 46 48 46 45 47 48 49 50 49 51
45 42 34 34 28 26 26 39 38 37 38 34 37 36 35 38 41 50 51 46 47 46 45 44 43 45 51 52 53 52 50 50 48 47 48 47 45 47 48 48 49 50 50 51
41 45 36 31 29 29 38 39 39 37 29 42 41 41 42 41 44 49 47 47 46 46 45 43 43 45 52 54 53 52 50 48 47 48 48 46 47 48 48 50 50 52 52 53
40 39 35 31 31 29 39 38 35 29 43 46 45 45 45 45 47 49 48 46 46 46 45 43 43 47 54 54 53 51 50 47 48 50 47 46 48 49 50 50 50 52 52 52
37 35 34 34 31 28 41 36 36 50 50 48 47 48 48 47 47 46 44 46 46 44 42 42 44 48 54 53 52 51 49 48 51 49 47 47 48 48 48 51 51 50 52 49
35 37 37 35 31 41 40 44 47 50 49 48 47 48 46 46 44 44 44 45 46 43 43 43 47 50 53 52 52 50 48 49 50 49 47 47 47 47 48 50 50 51 52 47
35 40 32 34 35 34 40 41 46 49 49 48 49 48 46 44 44 44 43 45 45 43 43 45 49 51 52 51 51 49 48 51 49 48 48 46 47 48 48 45 47 45 51 52
33 40 36 35 37 35 37 38 44 48 48 46 47 46 43 43 44 43 44 46 45 44 44 47 50 52 50 51 50 48 48 51 50 49 46 47 48 48 49 47 47 46 47 45
31 36 32 31 38 39 40 42 46 44 46 47 46 43 44 44 44 45 46 45 45 44 46 48 50 52 51 50 48 47 50 50 50 51 45 43 48 46 44 48 47 41 42 41

GFSCGP_sfc_dewp_291.txt.gz
Dewpoint
24 21 20 21 24 24 16 22 26 29 26 27 23 20 26 31 33 35 49 51 55 56 63 65 61 63 65 66 66 66 66 66 66 65 64 64 64 64 62 63 61 63 62 59
23 21 21 23 19 16 17 25 25 23 24 18 20 20 34 38 42 43 42 54 57 59 57 62 61 59 63 66 66 66 66 67 66 66 66 66 65 65 64 63 63 62 58 58
21 21 24 23 19 14 24 21 21 21 19 20 25 34 39 42 47 43 43 50 60 60 62 60 60 57 64 59 60 60 66 67 67 67 65 67 67 66 64 60 59 60 58 58
19 19 17 15 21 23 20 21 18 19 24 20 29 31 39 42 42 47 46 42 56 59 57 59 57 59 62 59 60 60 67 66 67 66 66 63 62 61 60 57 60 56 56 57
20 19 18 21 24 24 28 28 28 27 24 31 32 34 39 42 41 42 43 43 41 57 60 59 59 61 60 60 64 66 63 66 68 67 64 64 62 60 59 58 56 55 57 56
17 21 21 21 21 25 29 31 33 31 29 29 31 35 33 29 34 42 43 35 30 48 53 55 57 59 59 60 61 65 64 67 66 65 66 64 61 59 58 58 58 55 55 55
22 24 21 21 19 27 33 33 28 26 32 31 33 33 35 34 30 29 31 34 36 48 51 54 56 58 59 58 58 61 62 65 66 66 65 63 59 58 57 56 55 53 54 54
34 24 30 26 23 25 33 33 31 26 30 26 31 32 32 38 34 33 35 37 41 50 53 55 56 57 57 56 58 56 61 61 64 64 60 59 59 58 57 56 56 55 54 54
36 35 34 27 38 35 36 36 36 33 34 30 34 35 35 37 37 36 36 41 40 45 52 54 55 54 56 55 52 53 52 55 56 57 57 56 56 56 55 56 55 54 54 53
38 34 32 38 39 41 41 42 36 34 26 24 31 31 30 31 37 36 38 39 41 39 45 52 52 54 54 53 52 53 54 54 54 55 56 56 55 56 55 54 53 52 52 52
35 37 35 41 40 39 43 43 38 35 30 25 27 32 35 34 39 40 44 40 42 44 43 44 47 51 52 51 51 53 53 53 53 54 55 55 54 54 53 52 52 52 52 52
43 39 39 40 44 40 37 38 38 35 31 33 32 30 38 39 44 46 50 49 53 43 47 44 46 51 52 50 49 51 52 52 52 53 53 53 52 52 53 52 51 52 50 49
45 38 37 37 42 42 40 38 38 40 41 33 31 35 43 44 46 47 48 52 53 46 44 45 46 47 52 50 52 53 52 52 53 50 52 51 52 51 50 50 50 50 49 49
50 38 36 35 37 39 41 38 37 40 38 33 31 35 41 45 49 50 51 54 46 44 46 46 45 45 50 50 52 54 53 53 52 51 51 51 49 48 48 49 49 48 49 48
47 39 40 38 34 34 38 35 35 39 38 32 34 39 46 48 49 50 52 43 43 46 43 43 43 48 49 49 50 54 54 53 51 49 49 48 47 48 48 48 48 48 48 49
44 43 41 40 38 36 36 34 34 34 34 34 35 39 47 48 48 51 45 44 44 45 44 42 43 50 50 51 51 53 53 52 50 49 47 47 47 48 48 48 48 48 48 49
45 43 41 36 37 37 34 36 35 38 39 39 36 39 46 46 46 46 46 46 46 44 44 42 43 51 52 52 53 51 51 51 50 47 47 47 47 47 48 48 47 47 48 48
42 43 40 37 38 31 42 44 42 41 42 43 45 47 48 47 48 47 47 48 46 46 44 42 45 52 53 53 51 51 50 50 49 48 46 46 47 46 48 48 48 48 48 48
40 44 42 39 36 38 40 44 43 41 44 46 44 45 48 48 48 48 50 47 47 46 44 44 49 54 54 53 52 51 50 50 49 48 47 47 48 49 47 48 48 48 48 48
48 46 42 39 36 37 43 48 49 48 42 47 48 48 48 47 45 47 46 48 47 46 45 46 53 54 54 52 52 50 50 49 48 48 47 48 48 48 48 48 48 48 49 49
46 44 40 40 42 44 48 48 48 40 42 48 50 50 48 47 48 48 48 48 46 45 45 47 54 53 54 53 51 50 50 49 49 48 48 48 47 46 47 48 49 49 48 49
45 43 41 43 40 39 47 47 44 50 48 47 50 51 48 48 48 46 48 48 46 44 46 47 53 53 53 51 50 50 50 50 48 48 47 46 47 47 48 48 49 48 48 48
43 44 43 42 40 44 46 45 52 48 47 52 49 48 47 47 46 47 48 47 47 45 48 48 52 53 52 50 49 50 51 49 48 47 48 46 47 48 48 47 48 48 48 48
43 45 41 37 37 44 46 47 52 49 51 52 49 48 47 46 46 48 48 47 46 44 48 48 50 52 51 49 50 51 50 50 50 48 49 47 46 46 49 46 47 45 44 45
39 39 39 39 41 43 47 49 52 50 49 49 49 48 48 47 47 47 46 45 43 44 50 50 52 52 50 49 50 50 50 50 50 49 46 46 46 45 47 45 43 45 41 42
41 37 39 41 42 43 46 50 51 49 48 46 48 47 48 48 47 45 45 45 46 50 50 50 50 51 50 48 50 50 50 50 49 48 46 46 46 46 47 47 46 41 41 41